Location: Foresta
(37.6983°N, 119.7552°W)
Time: 00:19:49
(UTC+00:00)

Daily predictions for brighter satellites

Satellite Brightness Start Highest point End
(mag) Time Altitude Azimuth Time Altitude Azimuth Time Altitude Azimuth
Resurs 01 Rocket 1.6 03:48:44 10° SSE 03:53:07 76° ENE 03:57:31 10° N
USA 234 3.4 03:48:10 10° NE 03:54:29 50° SE 04:00:45 10° SSW
SJ-6B 4.4 03:52:01 10° SSW 03:55:16 31° W 03:58:32 10° NNW
Terra 3.9 03:56:30 10° E 03:58:34 13° ENE 04:00:39 10° NE
Lacrosse 5 rocket 3.6 03:56:56 10° WNW 03:59:53 19° WSW 04:02:46 10° SSW
Cosmos 1470 4.0 03:58:10 10° NNE 04:01:11 23° ENE 04:04:11 10° SE
CZ-4 R/B 3.0 04:02:10 10° SSW 04:05:45 33° W 04:09:24 10° NNW
Cosmos 2026 Rocket 4.1 03:59:37 10° S 04:05:48 81° W 04:11:56 10° N
KORONAS-FOTON 4.0 04:04:28 10° S 04:08:02 49° E 04:11:39 10° NNE
CZ-4B R/B 3.7 04:07:59 10° S 04:13:10 59° WSW 04:18:26 10° NNW
Cosmos 1842 3.0 04:10:10 10° S 04:13:46 65° E 04:17:24 10° NNE
IRIDIUM 106 4.3 04:16:07 10° N 04:21:21 75° E 04:26:32 10° S
Cosmos 2360 Rocket 4.2 04:26:47 10° NNE 04:30:02 15° NE 04:33:16 10° E
Cosmos 540 Rocket 3.6 04:24:57 10° N 04:30:03 59° ENE 04:34:02 16° SE
USA 186 4.4 04:28:08 10° SW 04:30:38 20° W 04:33:09 10° NW
ATLAS 2AS CENTAUR R/B 4.4 04:26:35 10° N 04:31:23 20° NE 04:36:05 10° E
In-Cosmos 22 4.4 04:26:00 10° SSE 04:31:26 50° E 04:36:45 10° NNE
Cosmos 1707 2.7 04:34:56 10° S 04:38:31 75° W 04:42:08 10° N
Okean-O 2.6 04:36:10 12° S 04:40:12 82° WSW 04:44:38 10° NNW
Cosmos 2082 Rocket 4.0 04:35:31 10° SW 04:40:40 34° WNW 04:45:50 10° N
SL-16 R/B 3.0 04:36:17 10° N 04:41:31 37° ENE 04:45:05 18° ESE
Cosmos 1515 Rocket 4.4 04:38:31 10° SSW 04:42:41 49° W 04:46:54 10° N
Cosmos 2333 Rocket 4.0 04:39:35 10° N 04:43:29 18° NE 04:47:07 11° E
SeaSat 1 3.2 04:42:03 18° ESE 04:45:12 39° ENE 04:49:45 10° N
Cosmos 2369 4.1 04:39:53 10° NNW 04:45:32 61° WSW 04:50:32 13° S
CZ-4C R/B 3.7 04:43:26 10° N 04:47:33 70° WNW 04:51:38 10° SSW
USA 245 3.8 04:47:48 26° ESE 04:49:10 38° ENE 04:52:56 10° N
Atlas Centaur 2 3.3 04:42:41 10° WSW 04:50:27 51° S 04:56:31 18° ESE
Tiangong -2.2 04:50:39 10° WNW 04:53:49 77° SSW 04:54:54 37° ESE
SPOT 5 2.6 04:53:26 20° S 04:56:25 82° WSW 05:00:48 10° NNW
Cosmos 381 Rocket 4.5 04:50:39 10° NNW 04:57:01 83° ENE 05:01:23 21° SSE
Cosmos 2228 Rocket 3.8 04:56:00 26° SE 04:57:44 36° E 05:01:54 10° NNE
ASTRO E2 4.2 04:57:14 10° SW 04:58:37 17° SSW 04:58:37 17° SSW
Okean O Rocket 3.6 04:56:49 10° SSW 05:00:24 24° W 05:03:58 10° NW
IRS-1A Rocket 4.2 04:57:30 21° SSE 05:01:21 84° ENE 05:06:53 10° NNW
MetOp-B 4.2 04:57:49 17° S 05:01:56 77° WSW 05:07:19 10° NNW
Cosmos 1356 Rocket 4.0 05:01:42 30° SE 05:02:53 37° E 05:06:47 10° NNE
SL-08 ROCKET BODY 4.4 04:58:26 14° S 05:03:44 73° E 05:09:47 10° N
Cosmos 1869 Rocket 3.5 05:00:41 10° N 05:05:08 76° E 05:07:23 29° SSE
Cosmos 1400 Rocket 2.6 05:03:49 23° S 05:06:12 84° E 05:10:04 10° N
ERS-1 Rocket 2.9 05:10:39 27° SSE 05:13:29 89° E 05:18:32 10° NNW
ATLAS CENTAUR R/B 0.8 05:11:14 12° SSW 05:14:25 84° WNW 05:17:57 10° NNE
S3M 4.0 05:09:11 10° N 05:15:34 80° E 05:19:23 26° SSE
Cosmos 1300 3.2 05:13:44 10° N 05:17:03 36° E 05:17:15 36° E
Cosmos 1441 Rocket 3.8 05:14:43 10° NNW 05:18:13 48° W 05:19:49 27° SSW
Cosmos 841 Rocket 3.5 05:14:32 10° NNW 05:19:49 71° ENE 05:22:02 35° SSE
Meteor 1-22 Rocket 4.2 05:15:12 10° N 05:20:56 86° E 05:24:08 29° S
Cosmos 2266 Rocket 4.2 05:15:24 11° SSW 05:21:31 75° W 05:27:55 10° N
Cosmos 1980 Rocket 4.2 05:18:18 10° NW 05:22:25 21° W 05:26:30 10° SSW
Cosmos 1655 Rocket 4.0 05:19:20 21° S 05:23:44 79° E 05:30:09 10° N
Cosmos 1315 Rocket 4.4 05:24:58 21° ENE 05:24:58 21° ENE 05:27:23 10° NE
Cosmos 2322 Rocket 2.6 05:18:56 10° NNW 05:24:29 52° ENE 05:26:46 33° ESE
Spot 2 Rocket 3.4 05:22:35 34° SSE 05:24:52 84° ENE 05:29:58 10° NNW
Cosmos 1908 4.4 05:22:37 10° NNW 05:25:54 34° W 05:27:39 21° SW
Aureole 3 3.8 05:27:56 40° E 05:28:04 40° E 05:32:11 10° NNE
Cosmos 1953 4.4 05:27:59 10° NE 05:29:44 14° ENE 05:29:44 14° ENE
Cosmos 1862 Rocket 3.5 05:32:16 49° SSE 05:33:14 65° E 05:37:36 10° NNE
Meteor 2-10 Rocket 3.5 05:29:58 10° N 05:35:32 87° E 05:37:36 39° S
Terra 2.0 05:33:36 33° S 05:35:35 63° W 05:40:16 10° NNW
Cosmos 2278 4.1 05:30:45 10° NNW 05:36:21 58° WSW 05:38:57 31° S
USA 234 4.3 05:31:14 10° NE 05:37:24 47° NW 05:43:34 10° WSW
Cosmos 807 4.3 05:38:48 76° NE 05:38:48 76° NE 05:41:45 10° N
Meteor 1-21 4.2 05:36:20 31° S 05:39:12 81° E 05:45:02 10° N
SL-27 R/B 2.9 05:40:47 44° NW 05:40:47 44° NW 05:43:03 10° N
Landsat 5 3.3 05:37:29 10° NNE 05:41:33 75° ESE 05:42:09 61° SSE
Okean 3 3.2 05:44:40 67° SE 05:44:59 71° E 05:49:08 10° NNE
SL-14 R/B 4.0 05:47:52 34° SW 05:49:02 45° W 05:52:42 10° N
Ariane Rocket 3.3 05:47:41 36° SSW 05:49:37 60° W 05:54:39 10° NNW
Cosmos 2219 Rocket 3.3 05:44:49 10° N 05:49:55 33° ENE 05:51:37 28° E
Landsat 4 4.2 05:51:46 45° WSW 05:51:52 45° W 05:55:11 10° NNW
Meteor 1-4 Rocket 3.7 05:53:21 29° NNE 05:53:21 29° NNE 05:55:00 10° NNE
Cosmos 1707 Rocket 4.0 05:52:13 36° SW 05:53:49 58° W 05:58:11 10° N
SJ 16-02 1.2 05:53:27 63° SSW 05:54:06 88° WNW 05:58:27 10° NNE
BREEZE-M DEB (TANK) 4.1 05:52:07 10° NNW 05:54:08 25° NE 05:54:34 24° NE
Cosmos 1346 Rocket 2.8 05:57:25 10° NNW 06:01:14 67° W 06:01:14 67° W
RESURS DK-1 2.9 06:02:51 10° NW 06:06:46 48° WSW 06:06:46 48° WSW
COSMOS 2455 4.0 06:07:48 27° E 06:07:48 27° E 06:11:51 10° NE
ARIANE 5 R/B 3.7 06:08:40 30° ENE 06:08:40 30° ENE 06:12:20 10° N
CZ-4C R/B 3.9 06:13:09 14° ENE 06:13:09 14° ENE 06:14:15 10° ENE
SL-08 R/B 4.4 06:10:00 52° SSE 06:11:19 67° E 06:17:21 10° NNE
Cosmos 2360 Rocket 2.1 06:09:00 10° NNW 06:14:41 78° WSW 06:15:45 59° S
Cosmos 1455 3.4 06:15:37 10° N 06:17:48 32° NNE 06:17:48 32° NNE
Cosmos 1733 Rocket 3.8 06:15:10 10° NNW 06:19:20 43° W 06:19:50 41° WSW
SeaSat 1 3.9 06:21:45 23° SW 06:22:40 25° WSW 06:26:40 10° NW
ATLAS 2AS CENTAUR R/B 2.5 06:16:28 10° NNW 06:23:16 88° ENE 06:24:53 55° SE
Okean 1-7 3.2 06:24:31 66° W 06:24:31 66° W 06:28:49 10° N
SL-16 R/B 3.5 06:20:39 10° NW 06:25:25 28° WSW 06:26:57 25° SW
Cosmos 2333 Rocket 2.3 06:22:33 10° NNW 06:28:16 66° WSW 06:29:07 58° SSW
GP-B 3.4 06:26:58 10° N 06:30:43 57° NE 06:30:43 57° NE
Cosmos 1908 Rocket 3.8 06:28:58 10° N 06:32:43 64° NNE 06:32:43 64° NNE
USA 281 3.4 06:32:33 47° ESE 06:34:16 61° ENE 06:40:45 10° NNW
Cosmos 1814 Rocket 4.0 06:30:05 10° NNW 06:35:22 71° WSW 06:35:44 68° SW
Atlas Centaur 2 3.6 06:31:53 10° W 06:38:43 36° SSW 06:38:43 36° SSW
Cosmos 2237 Rocket 4.1 06:45:14 10° N 06:49:10 19° NE 06:51:07 16° E
Cosmos 2227 Rocket 4.1 06:52:28 16° E 06:52:28 16° E 06:54:37 10° ENE
Cosmos 2322 3.8 06:46:23 10° NNW 06:52:01 61° ENE 06:52:24 59° E
Cosmos 1745 Rocket 3.9 06:53:20 68° S 06:54:15 89° E 07:00:38 10° N
Cosmos 1300 Rocket 4.5 06:50:12 10° N 06:53:24 42° NE 06:53:24 42° NE
Cosmos 2208 Rocket 4.4 06:49:34 10° N 06:54:33 49° ENE 06:54:33 49° ENE
ALOS 2 3.8 07:00:33 34° NE 07:00:33 34° NE 07:03:52 10° N
Cosmos 1953 4.1 07:02:33 10° NNW 07:04:51 26° WNW 07:04:51 26° WNW
Cosmos 2322 Rocket 3.9 07:04:04 10° NW 07:08:03 20° W 07:08:34 20° WSW
Cosmos 839 Rocket 4.1 07:02:02 10° NW 07:08:25 60° WSW 07:08:45 59° SW
Nadezhda 1 Rocket 3.8 07:02:12 10° N 07:08:29 80° W 07:09:03 73° SSW
Cosmos 2297 Rocket 2.6 07:11:26 51° ENE 07:11:26 51° ENE 07:16:09 10° NNE
CENTAUR R/B 3.7 07:20:44 25° E 07:20:44 25° E 07:24:22 10° NE
Meteor 2-5 Rocket 3.8 07:24:15 74° E 07:24:15 74° E 07:30:02 10° NNE
BlueWalker 3 4.1 07:23:59 22° NW 07:24:30 23° NNW 07:27:33 10° NNE
Cosmos 2242 Rocket 4.4 07:25:41 51° NNW 07:25:41 51° NNW 07:29:19 10° N
Cosmos 1486 Rocket 4.2 07:26:40 63° WNW 07:26:40 63° WNW 07:31:38 10° NNE
Cosmos 371 Rocket 3.7 07:29:04 58° NNW 07:29:04 58° NNW 07:33:07 10° NNE
COSMOS 2428 2.7 07:27:48 10° NNW 07:33:09 73° WNW 07:33:09 73° WNW
H-2A R/B 3.8 07:34:51 36° NW 07:34:51 36° NW 07:37:43 10° NNW
Cosmos 2219 Rocket 3.3 07:28:47 10° NW 07:33:19 32° W 07:33:19 32° W
Cosmos 1354 Rocket 4.2 07:42:02 65° NE 07:42:02 65° NE 07:46:37 10° NNE
Cosmos 2263 Rocket 4.1 07:45:28 17° E 07:45:28 17° E 07:48:07 10° ENE
COSMOS 2455 3.7 07:50:53 36° W 07:52:28 43° WNW 07:58:12 10° NNE
NOSS 0 Rocket 3.8 07:47:45 10° NNW 07:54:00 80° WSW 07:54:00 80° WSW
CZ-4C R/B 3.0 07:58:11 34° WNW 07:58:35 35° NW 08:03:26 10° NNE
NOSS 3-2 (A) 4.2 08:06:19 33° E 08:06:19 33° E 08:10:08 10° NE
Okean 1 Rocket 4.4 08:01:58 10° N 08:05:03 36° NE 08:05:03 36° NE
Cosmos 2184 Rocket 3.9 08:07:26 74° ESE 08:07:42 75° E 08:14:04 10° N
SL-12 R/B(2) 4.0 08:08:53 62° S 08:10:20 75° ESE 08:19:30 10° NE
Cosmos 2098 Rocket 4.0 08:04:24 10° NNW 08:10:57 64° W 08:11:08 64° WSW
SL-4 R/B 3.5 08:16:44 10° NW 08:19:46 37° N 08:19:46 37° N
Cosmos 332 Rocket 4.4 08:22:36 53° NNW 08:22:36 53° NNW 08:26:44 10° N
Cosmos 2154 Rocket 3.8 08:24:17 80° SE 08:24:34 83° E 08:30:51 10° N
SL-16 R/B 3.5 08:21:20 10° N 08:26:28 34° ENE 08:28:24 27° E
Cosmos 990 Rocket 4.1 08:28:19 68° NNE 08:28:19 68° NNE 08:32:47 10° NNE
Cosmos 1825 4.5 08:30:09 20° NNW 08:30:09 20° NNW 08:31:23 10° N
H-2A R/B 3.3 08:25:04 10° N 08:28:00 35° NNW 08:28:00 35° NNW
Cosmos 2082 4.3 08:32:57 46° E 08:32:57 46° E 08:37:54 10° NE
Cosmos 2237 Rocket 2.5 08:28:05 10° NNW 08:32:55 55° WNW 08:32:55 55° WNW
Cosmos 2227 Rocket 2.5 08:34:15 56° WNW 08:34:27 57° WNW 08:40:02 10° NNE
IDEFIX/ARIANE 42P 4.4 08:34:15 10° NE 08:37:50 18° E 08:38:13 18° E
Cosmos 1455 Rocket 4.1 08:39:03 10° N 08:42:43 42° NE 08:42:43 42° NE
Okean 2 Rocket 4.5 08:39:41 10° NNW 08:42:29 31° NW 08:42:29 31° NW
GEOS 3 Rocket 4.3 08:41:45 10° NNE 08:46:36 43° NW 08:47:19 40° WNW
Cosmos 1980 4.5 08:41:22 10° NW 08:45:41 39° WNW 08:45:41 39° WNW
CZ-2D R/B 4.1 08:44:48 10° NE 08:47:59 16° E 08:48:55 15° ESE
Cosmos 1538 Rocket 4.2 08:43:14 10° NNW 08:48:25 63° ENE 08:48:32 63° ENE
Meteor 1-21 Rocket 4.1 08:50:20 86° SW 08:50:28 88° W 08:56:13 10° N
Cosmos 1025 Rocket 4.0 08:54:33 44° NNW 08:54:33 44° NNW 08:57:44 10° N
Cosmos 2297 Rocket 4.0 08:53:11 18° W 08:55:02 21° NW 08:59:10 10° N
Cosmos 2219 3.2 08:57:02 68° W 08:57:14 68° WNW 09:02:50 10° NNE
Cosmos 372 Rocket 4.1 09:02:01 67° E 09:02:01 67° E 09:07:02 10° NNE
Aureole 1 Rocket 4.2 09:05:11 34° N 09:05:11 34° N 09:07:46 10° NNE
Helios 1A Rocket 3.9 09:08:46 42° NNE 09:08:46 42° NNE 09:11:30 10° N
CENTAUR R/B 3.1 09:07:50 35° W 09:09:23 42° NW 09:15:46 10° NNE
Cosmos 1461 3.9 09:11:56 41° NE 09:11:56 41° NE 09:14:35 10° NNE
ADEOS II 4.0 09:10:01 10° NE 09:13:35 18° E 09:15:11 16° ESE
Cosmos 2341 Rocket 3.9 09:12:42 63° SSE 09:13:43 78° E 09:19:56 10° N
CRYOSAT 2 4.3 09:09:36 10° N 09:14:17 79° NNW 09:14:17 79° NNW
USA 238 DEB 4.3 09:16:15 33° SE 09:17:07 35° ESE 09:22:50 10° NE
USA 238 4.3 09:16:17 33° SE 09:17:09 34° ESE 09:22:52 10° NE
Cosmos 1937 Rocket 3.4 09:18:39 82° SE 09:18:48 83° ESE 09:24:05 10° NNE
MOZ.5/SAFIR/RUBIN 5/SL-8 4.2 09:18:28 51° E 09:18:57 53° ENE 09:23:28 10° N
Cosmos 1898 Rocket 3.5 09:22:25 64° WNW 09:22:32 65° WNW 09:27:40 10° NNE
Cosmos 1339 Rocket 4.4 09:17:10 10° N 09:23:33 75° W 09:24:38 61° SSW
Meteor 2-1 Rocket 4.3 09:17:53 10° N 09:23:48 76° E 09:25:02 56° SSE
Resurs 1-4 Rocket 2.9 09:22:24 10° NNE 09:27:22 41° E 09:28:26 37° SE
Cosmos 2263 Rocket 2.4 09:27:08 50° W 09:27:48 54° WNW 09:33:16 10° NNE
Cosmos 1869 3.8 09:38:12 10° N 09:41:04 52° N 09:41:04 52° N
Cosmos 1821 Rocket 4.2 09:44:40 40° SSE 09:46:48 63° E 09:52:51 10° NNE
Cosmos 1844 Rocket 3.5 09:45:59 33° SE 09:47:32 41° ESE 09:52:42 10° NE
Cosmos 1437 Rocket 3.7 09:47:30 39° E 09:47:33 39° E 09:51:07 10° NNE
ALOS 4.3 09:46:13 10° NE 09:49:39 20° E 09:51:42 15° SE
Cosmos 2218 Rocket 4.0 09:48:21 51° SW 09:49:53 70° W 09:56:05 10° N
Cosmos 1544 Rocket 3.4 09:50:34 10° N 09:54:59 77° W 09:55:05 77° WSW
Cosmos 2366 rocket 4.1 09:55:02 46° SW 09:56:37 59° W 10:02:47 10° N
Cosmos 2228 2.9 09:53:46 10° N 09:58:06 82° E 09:58:31 71° SSE
Cosmos 1680 Rocket 3.4 09:53:25 10° NNW 09:58:38 85° ENE 10:00:26 42° SSE
Cosmos 2112 Rocket 4.1 09:55:45 10° NNW 10:00:56 75° ENE 10:03:19 33° SSE
Cosmos 1818 3.6 09:55:52 10° NNW 10:01:22 79° ENE 10:05:15 20° SE
NOSS 3-2 (C) 3.5 10:00:07 43° WSW 10:01:30 55° NW 10:07:19 10° NNE
MSX 3.8 10:01:03 10° N 10:06:46 76° WNW 10:08:36 45° SSW
COSMOS 2441 4.4 10:02:18 10° NNE 10:07:07 73° ESE 10:08:25 48° S
USA 267 3.5 10:02:19 10° NE 10:08:44 58° SE 10:11:21 36° SSW
BREEZE-M DEB (TANK) 4.3 10:07:23 10° NW 10:08:03 14° NW 10:08:03 14° NW
SL-16 R/B 3.1 10:05:31 10° NW 10:10:13 31° W 10:10:13 31° W
H-2A R/B 3.6 10:07:52 10° N 10:11:45 53° WNW 10:11:52 52° W
IDEFIX/ARIANE 42P 3.0 10:12:32 10° N 10:17:34 48° WNW 10:18:57 38° WSW
SEDSat Delta rocket 4.2 10:21:00 24° SE 10:21:00 24° SE 10:23:15 10° ESE
CZ-2C R/B 2.5 10:18:45 38° S 10:20:47 73° WSW 10:26:09 10° NNW
SL-16 R/B 3.3 10:14:45 10° SE 10:20:47 53° ENE 10:26:49 10° N
CZ-2C R/B 3.0 10:18:42 10° N 10:24:03 74° WNW 10:25:53 40° SSW
Cosmos 1943 3.1 10:19:41 10° NNW 10:25:19 82° WSW 10:29:23 19° SSE
GRACE-FO 1 4.3 10:25:33 73° SSW 10:25:48 81° W 10:29:22 10° N
GRACE-FO 2 4.3 10:26:00 73° SW 10:26:15 80° W 10:29:48 10° N
CZ-2D R/B 2.3 10:23:07 10° N 10:28:20 56° WNW 10:30:12 37° SW
Cosmos 1606 Rocket 3.9 10:26:07 10° N 10:30:32 64° E 10:33:15 22° SSE
Cosmos 921 Rocket 3.7 10:26:41 10° N 10:30:48 51° ENE 10:34:31 12° SSE
FENGYUN 3A 3.6 10:26:33 10° N 10:31:56 82° WNW 10:34:26 33° SSW
Cosmos 1536 Rocket 4.3 10:32:33 34° W 10:33:16 36° WNW 10:37:22 10° N
ASTEX 1 3.5 10:31:48 23° SSE 10:34:53 75° E 10:39:45 10° N
Iridium 2 3.4 10:40:08 45° E 10:40:08 45° E 10:42:31 10° NNE
Cosmos 1125 Rocket 3.9 10:38:11 24° S 10:41:17 59° ESE 10:46:28 10° NNE
CZ-2C R/B 4.4 10:40:34 10° NE 10:44:02 21° E 10:47:32 10° SE
Cosmos 1867 4.0 10:41:52 29° WSW 10:44:23 52° NW 10:49:44 10° NNE
Cosmos 1726 Rocket 3.8 10:41:34 10° N 10:46:00 70° E 10:49:33 15° SSE
Cosmos 1812 3.9 10:42:45 10° N 10:46:06 36° E 10:49:24 10° SSE
Cosmos 2058 3.5 10:48:10 19° SSE 10:50:52 51° E 10:54:49 10° NNE
Cosmos 494 Rocket 3.9 10:45:46 10° NNW 10:51:02 86° WSW 10:56:17 10° SSE
Cosmos 1727 Rocket 4.3 10:45:12 10° NNW 10:51:17 50° W 10:55:03 23° SSW
ADEOS II 2.5 10:48:23 10° N 10:53:25 49° WNW 10:56:03 26° SW
SAR-Lupe-4 3.5 10:51:36 10° NNE 10:55:11 82° ESE 10:56:48 30° S
IRAS Rocket 4.2 10:53:34 10° NNE 10:59:05 85° ESE 11:03:12 18° SSW
Cosmos 1844 4.0 10:57:17 25° SW 11:00:32 55° WNW 11:06:14 10° NNE
USA 81 4.2 10:59:00 10° N 11:04:17 78° E 11:09:32 10° S
Resurs 1-4 Rocket 3.5 11:02:47 10° NNW 11:06:53 23° WNW 11:09:29 16° WSW
USA 238 DEB 4.3 11:03:40 18° WSW 11:07:50 40° NW 11:14:02 10° NNE
USA 238 4.3 11:03:42 18° WSW 11:07:53 40° NW 11:14:06 10° NNE
Iridium 4 Rocket 3.6 11:03:30 10° N 11:08:00 66° E 11:12:53 10° S
ATLAS 5 CENTAUR R/B 2.4 11:06:37 15° SSE 11:08:36 27° ESE 11:11:30 10° NE
UNK 3.7 11:04:42 10° SSE 11:09:18 87° E 11:13:55 10° NNW
Meteor 1-28 Rocket 3.6 11:10:01 27° SW 11:11:18 37° W 11:14:38 10° NNW
Timation 2 Rocket 4.1 11:08:50 18° SSW 11:13:59 83° WNW 11:20:27 10° NNE
Cosmos 1544 2.5 11:13:19 22° S 11:14:45 65° E 11:17:22 10° NNE
NOSS 2-2 (E) 4.5 11:12:36 13° S 11:15:13 28° ESE 11:18:01 10° ENE
Delta 2 Rocket 3.5 11:18:28 16° W 11:21:29 49° SSW 11:25:43 10° ESE
Cosmos 1892 Rocket 4.2 11:19:49 20° SW 11:22:22 38° WNW 11:26:30 10° N
Cosmos 2058 Rocket 3.0 11:20:02 10° N 11:24:28 84° W 11:28:50 10° S
ALOS 3.1 11:22:43 10° N 11:26:53 35° WNW 11:30:00 16° SW
NOAA 11 4.2 11:22:06 10° NNE 11:27:37 88° ESE 11:33:04 10° SSW
Cosmos 1844 Rocket 4.0 11:27:38 13° WSW 11:31:29 26° WNW 11:36:07 10° N
NOSS 2-3 (D) 4.1 11:29:16 11° S 11:32:37 42° ESE 11:36:11 10° NE
METEOR-M 4.1 11:29:00 10° N 11:34:20 73° WNW 11:39:38 10° SSW
Cosmos 2298 Rocket 4.0 11:29:42 12° SSW 11:34:42 82° WNW 11:40:03 10° NNE
Cosmos 1607 4.0 11:38:14 10° NW 11:44:29 61° WSW 11:50:36 10° SSE
Cosmos 1605 Rocket 4.2 11:42:23 10° SSW 11:48:28 55° W 11:54:29 10° N
CZ-4 R/B 4.2 11:44:07 10° N 11:48:55 55° WNW 11:53:46 10° SSW
Cosmos 1626 Rocket 3.6 11:44:40 10° SSW 11:49:04 64° W 11:53:28 10° N
NOSS 2-2 (C) 3.0 11:46:57 12° SW 11:50:01 56° NW 11:53:04 10° NNE
USA 267 4.1 11:45:31 10° NE 11:51:33 41° NNW 11:57:34 10° W
Cosmos 2278 Rocket 3.5 11:48:41 10° S 11:53:51 38° ESE 11:59:02 10° NE
H-2A R/B 3.2 11:49:03 10° NNE 11:54:07 44° E 11:59:00 10° S
Cosmos 1862 3.8 11:50:55 10° S 11:54:39 57° E 11:58:23 10° NNE
